x

Buoy F01 - West Penobscot Bay (44033) Wave Buoy

11:04pm - Thu 30th Oct 2014 All times are EDT. -4 hours from GMT.

  • Sig Wave height 1.6ft
  • Peak Period 3s
  • Wind
    16mph, 18mph gusts
  • Sea Temp 54°f
  • 空気 Temp 47°f
  • Sea Pressure 1014.3mb
  • Buoy F01 - West Penobscot Bay
  • Buoy F01 - West Penobscot Bay

More Historic Weather Station data

Upgrade to MSW Pro to gain access to the past 30 days of data for over 8000 Wavebouys and Weather Stations around the globe.

Join Pro

Comparision Forecast

View Surf forecast
   
Thu 10/30 11:04pm 1.6ft 3s 16 18 mph 1014.3mb 54f 47f
10:04pm 2ft 3s 20 22 mph 1014mb 54f 48f
9:04pm 2ft 8s 18 22 mph 1013.5mb 54f 50f
8:04pm 1.3ft 6s 13 16 mph 1012.7mb 53f 52f
7:04pm 1.3ft 6s 9 11 mph 1012.2mb 54f 52f
6:04pm 1.6ft 8s 7 9 mph 1011.6mb 54f 53f
5:04pm 1.6ft 6s 7
mph
1011mb 54f 54f
4:04pm 1.3ft 6s 7 9 mph 1010.7mb 54f 55f
3:04pm 1.3ft 6s 7 9 mph 1010.4mb 54f 54f
2:04pm 1.3ft 6s 7 9 mph 1010.4mb 54f 53f
1:04pm 1.3ft 6s 11 13 mph 1010.5mb 54f 53f
12:04pm 1.3ft 6s 7 9 mph 1010.7mb 54f 54f
11:04am 1ft 6s 7 9 mph 1011.2mb 54f 51f
10:04am 1.3ft 6s 4 7 mph 1011.3mb 53f 52f
9:04am 1.6ft 6s 4
mph
1011.3mb 53f 50f
7:04am 1.6ft 6s 7 9 mph 1010.2mb 53f 49f
6:04am 2ft 6s 7 9 mph 1009.7mb 54f 49f
5:04am 2ft 6s 7 9 mph 1008.9mb 54f 49f
4:04am 2ft 6s 11 13 mph 1008.6mb 54f 51f
3:04am 2ft 6s 9 11 mph 1008.3mb 54f 51f
2:04am 2ft 6s 9 11 mph 1008.3mb 54f 52f
1:04am 2ft 5s 7 9 mph 1007.8mb 54f 53f
12:04am 2ft 6s 7 9 mph 1007.7mb 54f 54f
Wed 10/29 11:04pm 1.6ft 6s 9 11 mph 1007.7mb 54f 54f
10:04pm 2ft 5s 7 9 mph 1008mb 54f 54f
9:04pm 2ft 5s 9 11 mph 1008mb 54f 55f
8:04pm 2ft 5s 7
mph
1007.3mb 54f 54f
7:04pm 2ft 6s 7
mph
1007.4mb 54f 54f
6:04pm 2ft 5s 13 16 mph 1007mb 54f 53f
5:04pm 2ft 5s 13 16 mph 1006.5mb 54f 53f
4:04pm 2ft 6s 9 11 mph 1006.4mb 54f 53f
3:04pm 2.5ft 6s 13 16 mph 1006.9mb 54f 53f
2:04pm 2ft 5s 11 13 mph 1007mb 54f 53f
10:04am 2.5ft 5s 16 18 mph 1009.3mb 54f 54f
9:04am 2.5ft 5s 13 16 mph 1009.7mb 54f 54f
8:04am 2ft 5s 9 11 mph 1009.9mb 54f 55f
7:04am 2.5ft 5s 9 11 mph 1009.9mb 54f 55f
6:04am 2ft 5s 9 11 mph 1010.2mb 54f 55f
5:04am 2ft 5s 7
mph
1010.5mb 54f 55f
4:04am 2.5ft 5s 9 11 mph 1010.8mb 54f 55f
3:04am 2.5ft 5s 7
mph
1011.4mb 54f 55f
2:04am 2ft 5s 9
mph
1012.2mb 54f 56f
1:04am 2.5ft 4s 11 16 mph 1012.6mb 54f 56f
12:04am 2.5ft 4s 18 20 mph 1013.4mb 54f 55f
Tue 10/28 11:04pm 2.5ft 4s 13 16 mph 1014.7mb 54f 55f
10:04pm 2ft 4s 11 16 mph 1015.4mb 54f 55f
9:04pm 1.6ft 3s 11 16 mph 1015.8mb 54f 54f
8:04pm 1.3ft 3s 13 16 mph 1015.7mb 54f 54f
7:04pm 1.3ft 3s 13 16 mph 1016.1mb 54f 54f
6:04pm 1.3ft 3s 13 16 mph 1016.4mb 54f 53f
5:04pm 1ft 6s 13 16 mph 1016.5mb 54f 53f
4:04pm 1.3ft 6s 13 16 mph 1016.5mb 54f 52f
3:04pm 0.7ft  -  13 16 mph 1016.4mb 54f 51f
2:04pm 0.7ft  -  11 13 mph 1016.9mb 54f 51f
1:04pm 0.7ft  -  7 9 mph 1017.8mb 53f 51f
12:04pm 0.7ft  -  4 7 mph 1018.2mb 53f 51f
11:04am 0.7ft  -  4
mph
1017.9mb 53f 50f
10:04am 0.7ft  -  2 4 mph 1017.9mb 53f 50f
9:04am 1ft 3s 4
mph
1018.1mb 53f 50f
8:04am 0.7ft  -  7
mph
1017.6mb 53f 49f
7:04am 0.7ft  -  7 9 mph 1017.3mb 53f 49f
6:04am 0.7ft  -  11 13 mph 1016.7mb 53f 49f
5:04am 0.7ft  -  9 11 mph 1015.9mb 54f 49f
4:04am 0.7ft  -  9
mph
1014.8mb 54f 49f
3:04am 0.7ft  -  11 13 mph 1014.8mb 54f 49f
2:04am 0.7ft  -  13 16 mph 1014.4mb 54f 49f
1:04am 0.7ft  -  13 16 mph 1013.7mb 54f 50f
12:04am 1ft 2s 13 16 mph 1013.5mb 54f 49f
Mon 10/27 11:04pm 1ft 5s 13 16 mph 1013.2mb 54f 49f
10:04pm 0.7ft  -  13
mph
1012.9mb 54f 50f
9:04pm 1ft  -  11 13 mph 1012.3mb 54f 50f
8:04pm 1.3ft 2s 16 18 mph 1011.8mb 54f 51f
7:04pm 1.3ft 5s 20 25 mph 1011mb 54f 53f
6:04pm 1.3ft 3s 18 22 mph 1009.3mb 54f 54f
5:04pm 1.3ft 6s 18 22 mph 1008.1mb 54f 55f
4:04pm 1.6ft 2s 20 25 mph 1007.2mb 54f 55f
3:04pm 2ft 3s 20 25 mph 1006.4mb 54f 55f
2:04pm 1.6ft 3s 22 29 mph 1005.8mb 54f 55f
1:04pm 2ft 3s 20 25 mph 1005.9mb 54f 54f
12:04pm 2ft 3s 20 25 mph 1006.5mb 54f 53f
11:04am 2.5ft 3s 20 29 mph 1005.8mb 54f 53f
10:04am 1.6ft 2s 22 29 mph 1005.1mb 54f 51f
9:04am 1.6ft 2s 18 22 mph 1005mb 54f 50f
8:04am 1ft 5s 16 20 mph 1004.5mb 54f 48f
7:04am 1ft 5s 11 16 mph 1003.7mb 54f 47f
6:04am 1.3ft 8s 16 18 mph 1002.8mb 54f 47f
5:04am 1.3ft 5s 11 16 mph 1002.6mb 54f 47f